Weather History for Watford City, ND

Change the Weather History Date:

Thursday, November 15, 2012

  Actual Average (KISN) Record (KISN)
Temperature  
Mean Temperature 22 °F 27 °F  
Max Temperature 35 °F 38 °F 68 °F (1953)
Min Temperature 8 °F 17 °F -10 °F (1959)
Degree Days  
Heating Degree Days 44 38  
Month to date heating degree days 504  
Since 1 July heating degree days 1531  
Cooling Degree Days 0 0  
Month to date cooling degree days 0  
Year to date cooling degree days 456  
Moisture  
Dew Point 19 °F    
Average Humidity 84    
Maximum Humidity 100    
Minimum Humidity 70    
Precipitation  
Precipitation 0.00 in 0.02 in 0.69 in (1906)
Month to date precipitation 0.37  
Year to date precipitation 13.47  
Sea Level Pressure  
Sea Level Pressure 30.25 in    
Wind  
Wind Speed 6 mph (SSW)    
Max Wind Speed 17 mph    
Max Gust Speed 22 mph    
Visibility 10 miles    
Events      
T = Trace of Precipitation, MM = Missing Value Source: NWS Daily Summary

Daily Weather History Graph

Daily Weather History Graph

Search for Another Location

Airport:

Trip Planner

Search our weather history database for the weather conditions in past years. The results will help you decide how hot, cold, wet, or windy it might be!

Date:

Astronomy

Nov. 15, 2012 Rise Set
Actual Time 7:59 AM CST 5:15 PM CST
Civil Twilight 7:25 AM CST 5:49 PM CST
Nautical Twilight 6:48 AM CST 6:26 PM CST
Astronomical Twilight 6:11 AM CST 7:03 PM CST
Moon 10:03 AM CST (11/15) 7:04 PM CST (11/15)
Length of Visible Light 10h 23m
Length of Day
9h 15m
Waxing Crescent, 5% of the Moon is Illuminated
Nov 15
Waxing Crescent
Nov 20
First Quarter
Nov 28
Full
Dec 6
Last Quarter
Dec 13
New

Hourly Weather History & Observations

Time (CST) Temp. Windchill Dew Point Humidity Pressure Visibility Wind Dir Wind Speed Gust Speed Precip Events Conditions
12:15 AM 23.0 °F 13.1 °F 19.4 °F 86% 30.15 in 10.0 mi WSW 9.2 mph - N/A   Clear
12:35 AM 23.0 °F 13.9 °F 19.4 °F 86% 30.16 in 10.0 mi West 8.1 mph - N/A   Clear
12:55 AM 23.0 °F 15.8 °F 19.4 °F 86% 30.18 in 10.0 mi West 5.8 mph - N/A   Clear
1:15 AM 19.4 °F 12.8 °F 17.6 °F 93% 30.18 in 10.0 mi West 4.6 mph - N/A   Clear
1:35 AM 23.0 °F 15.8 °F 19.4 °F 86% 30.19 in 10.0 mi WSW 5.8 mph - N/A   Clear
1:55 AM 19.4 °F 12.8 °F 17.6 °F 93% 30.19 in 10.0 mi SW 4.6 mph - N/A   Clear
2:15 AM 19.4 °F 11.5 °F 17.6 °F 93% 30.20 in 10.0 mi SW 5.8 mph - N/A   Clear
2:35 AM 19.4 °F 10.4 °F 17.6 °F 93% 30.22 in 10.0 mi WSW 6.9 mph - N/A   Clear
2:55 AM 17.6 °F 8.2 °F 15.8 °F 93% 30.23 in 10.0 mi SW 6.9 mph - N/A   Clear
3:15 AM 17.6 °F 6.4 °F 15.8 °F 93% 30.23 in 10.0 mi WSW 9.2 mph - N/A   Clear
3:35 AM 15.8 °F 8.6 °F 14.0 °F 93% 30.24 in 10.0 mi SW 4.6 mph - N/A   Clear
3:55 AM 15.8 °F 6.1 °F 14.0 °F 93% 30.25 in 10.0 mi SW 6.9 mph - N/A   Clear
4:15 AM 14.0 °F 3.9 °F 12.2 °F 93% 30.26 in 10.0 mi SW 6.9 mph - N/A   Clear
4:35 AM 12.2 °F 2.9 °F 10.4 °F 92% 30.25 in 10.0 mi SW 5.8 mph - N/A   Clear
4:55 AM 10.4 °F 0.8 °F 8.6 °F 92% 30.26 in 10.0 mi SSW 5.8 mph - N/A   Clear
5:15 AM 12.2 °F 6.1 °F 10.4 °F 92% 30.27 in 10.0 mi SW 3.5 mph - N/A   Clear
5:35 AM 12.2 °F 6.1 °F 10.4 °F 92% 30.27 in 10.0 mi WSW 3.5 mph - N/A   Clear
5:55 AM 10.4 °F 4.0 °F 8.6 °F 92% 30.28 in 10.0 mi West 3.5 mph - N/A   Clear
6:15 AM 12.2 °F 6.1 °F 10.4 °F 92% 30.28 in 10.0 mi SW 3.5 mph - N/A   Clear
6:35 AM 10.4 °F 4.0 °F 6.8 °F 85% 30.29 in 10.0 mi SW 3.5 mph - N/A   Clear
6:55 AM 8.6 °F 2.0 °F 6.8 °F 92% 30.29 in 10.0 mi SW 3.5 mph - N/A   Clear
7:15 AM 10.4 °F - 8.6 °F 92% 30.30 in 9.0 mi Calm Calm - N/A   Clear
7:35 AM 10.4 °F - 8.6 °F 92% 30.31 in 8.0 mi Calm Calm - N/A   Clear
7:55 AM 10.4 °F - 8.6 °F 92% 30.31 in 2.5 mi Calm Calm - N/A   Clear
8:15 AM 8.6 °F - 6.8 °F 92% 30.32 in 1.8 mi Calm Calm - N/A   Clear
8:35 AM 8.6 °F - 6.8 °F 92% 30.33 in 5.0 mi Calm Calm - N/A   Clear
8:55 AM 8.6 °F - 6.8 °F 92% 30.33 in 7.0 mi Calm Calm - N/A   Clear
9:15 AM 8.6 °F - 6.8 °F 92% 30.33 in 7.0 mi Calm Calm - N/A   Clear
9:35 AM 8.6 °F 2.0 °F 6.8 °F 92% 30.34 in 10.0 mi WSW 3.5 mph - N/A   Clear
10:15 AM 14.0 °F 8.2 °F 10.4 °F 86% 30.35 in 10.0 mi WSW 3.5 mph - N/A   Clear
10:35 AM 14.0 °F - 12.2 °F 93% 30.35 in 10.0 mi Calm Calm - N/A   Clear
10:55 AM 17.6 °F - 15.8 °F 93% 30.35 in 10.0 mi Calm Calm - N/A   Clear
11:15 AM 17.6 °F - 15.8 °F 93% 30.35 in 10.0 mi Calm Calm - N/A   Clear
11:35 AM 19.4 °F 14.3 °F 17.6 °F 93% 30.34 in 10.0 mi ESE 3.5 mph - N/A   Clear
11:55 AM 23.0 °F 14.7 °F 23.0 °F 100% 30.33 in 10.0 mi SE 6.9 mph - N/A   Clear
12:15 PM 24.8 °F 16.1 °F 23.0 °F 93% 30.32 in 10.0 mi ESE 8.1 mph - N/A   Clear
12:35 PM 26.6 °F 20.0 °F 23.0 °F 86% 30.31 in 10.0 mi ESE 5.8 mph - N/A   Clear
12:55 PM 32.0 °F 25.6 °F 24.8 °F 75% 30.30 in 10.0 mi SE 6.9 mph - N/A   Clear
1:15 PM 32.0 °F 25.6 °F 24.8 °F 75% 30.29 in 10.0 mi SSE 6.9 mph - N/A   Clear
1:35 PM 33.8 °F 30.8 °F 26.6 °F 75% 30.28 in 10.0 mi SSE 3.5 mph - N/A   Clear
1:55 PM 33.8 °F - 26.6 °F 75% 30.28 in 10.0 mi Calm Calm - N/A   Clear
2:15 PM 35.6 °F 29.2 °F 26.6 °F 70% 30.27 in 10.0 mi SSE 8.1 mph - N/A   Clear
2:35 PM 35.6 °F 29.2 °F 26.6 °F 70% 30.26 in 10.0 mi SE 8.1 mph - N/A   Clear
2:55 PM 35.6 °F 29.2 °F 26.6 °F 70% 30.26 in 10.0 mi SE 8.1 mph - N/A   Clear
3:15 PM 35.6 °F 28.6 °F 28.4 °F 75% 30.25 in 10.0 mi SE 9.2 mph - N/A   Clear
3:35 PM 35.6 °F 30.7 °F 28.4 °F 75% 30.25 in 10.0 mi SSE 5.8 mph - N/A   Clear
3:55 PM 35.6 °F 31.7 °F 26.6 °F 70% 30.25 in 10.0 mi SSE 4.6 mph - N/A   Clear
4:15 PM 33.8 °F 30.8 °F 26.6 °F 75% 30.25 in 10.0 mi SSE 3.5 mph - N/A   Clear
4:35 PM 32.0 °F 27.5 °F 26.6 °F 80% 30.24 in 10.0 mi SSE 4.6 mph - N/A   Clear
4:55 PM 32.0 °F - 26.6 °F 80% 30.23 in 10.0 mi Calm Calm - N/A   Clear
5:15 PM 30.2 °F 26.7 °F 24.8 °F 80% 30.23 in 10.0 mi South 3.5 mph - N/A   Clear
5:35 PM 28.4 °F - 24.8 °F 86% 30.23 in 10.0 mi Calm Calm - N/A   Clear
5:55 PM 28.4 °F - 24.8 °F 86% 30.22 in 10.0 mi Calm Calm - N/A   Clear
6:15 PM 28.4 °F - 24.8 °F 86% 30.22 in 10.0 mi Calm Calm - N/A   Clear
6:35 PM 26.6 °F - 23.0 °F 86% 30.21 in 10.0 mi Calm Calm - N/A   Clear
6:55 PM 35.6 °F 27.5 °F 26.6 °F 70% 30.20 in 10.0 mi South 11.5 mph - N/A   Clear
7:15 PM 35.6 °F 27.1 °F 26.6 °F 70% 30.20 in 10.0 mi South 12.7 mph - N/A   Clear
7:35 PM 35.6 °F 27.1 °F 26.6 °F 70% 30.20 in 10.0 mi South 12.7 mph - N/A   Clear
7:55 PM 35.6 °F 26.2 °F 26.6 °F 70% 30.19 in 10.0 mi South 15.0 mph - N/A   Clear
8:15 PM 33.8 °F 23.9 °F 24.8 °F 70% 30.19 in 10.0 mi South 15.0 mph - N/A   Clear
8:35 PM 33.8 °F 23.9 °F 24.8 °F 70% 30.19 in 10.0 mi South 15.0 mph 20.7 mph N/A   Clear
8:55 PM 33.8 °F 23.2 °F 26.6 °F 75% 30.19 in 10.0 mi South 17.3 mph 21.9 mph N/A   Clear
9:15 PM 33.8 °F 23.2 °F 26.6 °F 75% 30.18 in 10.0 mi South 17.3 mph - N/A   Clear
9:35 PM 32.0 °F 22.1 °F 24.8 °F 75% 30.19 in 10.0 mi South 13.8 mph - N/A   Clear
9:55 PM 32.0 °F 23.6 °F 24.8 °F 75% 30.18 in 10.0 mi SSW 10.4 mph - N/A   Clear
10:15 PM 32.0 °F 23.6 °F 24.8 °F 75% 30.18 in 10.0 mi SW 10.4 mph - N/A   Clear
10:35 PM 32.0 °F 24.2 °F 24.8 °F 75% 30.18 in 10.0 mi SSW 9.2 mph - N/A   Clear
10:55 PM 32.0 °F 24.8 °F 24.8 °F 75% 30.17 in 10.0 mi South 8.1 mph - N/A   Clear
11:15 PM 32.0 °F 24.8 °F 24.8 °F 75% 30.16 in 10.0 mi South 8.1 mph - N/A   Clear
11:35 PM 32.0 °F 25.6 °F 24.8 °F 75% 30.16 in 10.0 mi SW 6.9 mph - N/A   Clear
11:55 PM 32.0 °F - 24.8 °F 75% 30.15 in 10.0 mi Calm Calm - N/A   Clear